User: anonymous   Login
Location: Unspecified
(0.0000°N, 0.0000°E)
Time: 23:56:56
(UTC+00:00)
Language:

KEPLER-21 - Orbit

View from above orbital plane
View from above orbital plane
View from above satellite
View from above satellite

Ground track
Ground track

The orbit is defined by the following mean orbital elements,

1 56218U          26145.28470747 +.00000000 +00000-0 +57749-3 0 00007
2 56218  97.2871  63.5946 0006483 109.4721 250.7253 15.89323447    06
Epoch (UTC): 25 May 2026 06:49:58
Eccentricity: 0.0006483
inclination: 97.2871°
perigee height: 300 km
apogee height: 309 km
right ascension of ascending node: 63.5946°
argument of perigee: 109.4721°
revolutions per day: 15.89323447
mean anomaly at epoch: 250.7253°

The dashed part of the orbit path shows where the satellite is in the earth's shadow,  

DLR